Location: Grange Rosano
(44.4500°N, 6.9667°E)
Time: 15:57:12
(UTC+00:00)

ADEOS II - Pass Details

Date: 03 October 2022
Orbit: 799 x 799 km, 98.6° (Epoch: 30 November)

Event Time Altitude Azimuth Distance (km) Brightness Sun altitude
Rises 03:32:41 0° 356° (N) 3,319 5.5 -21.9°
Reaches altitude 10° 03:36:28 10° 328° (NNW) 2,383 4.4 -21.3°
Enters shadow 03:37:07 11° 321° (NW) 2,297 4.2 -21.1°
